QPF
0.00 0.00 0.00 0.00 0.00 0.00 0.00 0.00 0.00 0.00 0.00 0.00 0.00 0.00 0.00 0.00 0.01 0.01 0.01 0.00 0.01 0.01 0.01 0.01 0.01 0.02 0.02 0.02 0.01 0.02 0.02 0.03 0.03 0.02 0.02 0.03 0.04 0.06 0.05 0.05 0.05 0.05 0.04
0.00 0.00 0.00 0.00 0.00 0.00 0.00 0.00 0.00 0.00 0.00 0.00 0.00 0.00 0.00 0.00 0.00 0.00 0.00 0.00 0.00 0.00 0.01 0.01 0.01 0.01 0.02 0.02 0.01 0.01 0.01 0.02 0.03 0.02 0.03 0.03 0.04 0.05 0.06 0.06 0.05 0.04 0.06
0.00 0.00 0.00 0.00 0.00 0.00 0.00 0.00 0.00 0.00 0.00 0.00 0.00 0.00 0.00 0.00 0.01 0.00 0.00 0.00 0.00 0.00 0.00 0.01 0.01 0.02 0.02 0.02 0.01 0.01 0.01 0.02 0.03 0.02 0.03 0.04 0.04 0.04 0.07 0.08 0.05 0.05 0.05
0.00 0.00 0.00 0.00 0.00 0.01 0.00 0.00 0.00 0.00 0.00 0.00 0.00 0.00 0.00 0.00 0.00 0.00 0.00 0.00 0.00 0.00 0.00 0.00 0.00 0.02 0.02 0.01 0.01 0.02 0.03 0.03 0.04 0.04 0.04 0.04 0.04 0.04 0.06 0.07 0.05 0.04 0.04
0.01 0.01 0.01 0.00 0.01 0.01 0.00 0.00 0.00 0.00 0.00 0.00 0.00 0.00 0.00 0.01 0.01 0.00 0.00 0.00 0.01 0.00 0.00 0.00 0.01 0.01 0.00 0.00 0.01 0.02 0.03 0.03 0.04 0.05 0.05 0.05 0.04 0.04 0.05 0.05 0.04 0.03 0.04
0.01 0.02 0.02 0.01 0.00 0.01 0.00 0.00 0.00 0.00 0.00 0.00 0.00 0.01 0.01 0.00 0.00 0.00 0.00 0.00 0.00 0.00 0.00 0.01 0.01 0.01 0.01 0.01 0.01 0.01 0.02 0.02 0.03 0.05 0.05 0.05 0.05 0.05 0.05 0.05 0.04 0.03 0.03
0.01 0.01 0.01 0.01 0.01 0.01 0.00 0.00 0.00 0.00 0.00 0.00 0.00 0.00 0.00 0.00 0.00 0.00 0.00 0.00 0.00 0.01 0.01 0.01 0.01 0.01 0.01 0.00 0.00 0.01 0.01 0.02 0.03 0.05 0.05 0.05 0.04 0.04 0.04 0.05 0.04 0.03 0.02
0.00 0.00 0.01 0.00 0.00 0.00 0.00 0.00 0.00 0.00 0.00 0.00 0.00 0.00 0.00 0.00 0.00 0.00 0.00 0.00 0.00 0.01 0.01 0.01 0.01 0.01 0.01 0.01 0.01 0.01 0.01 0.01 0.02 0.03 0.05 0.05 0.04 0.03 0.03 0.03 0.04 0.04 0.03
0.00 0.00 0.00 0.00 0.00 0.00 0.00 0.00 0.00 0.00 0.00 0.00 0.00 0.00 0.00 0.00 0.00 0.00 0.00 0.00 0.01 0.01 0.01 0.00 0.00 0.01 0.01 0.02 0.03 0.03 0.02 0.01 0.01 0.03 0.03 0.03 0.05 0.04 0.03 0.02 0.02 0.03 0.03
0.00 0.00 0.00 0.00 0.00 0.00 0.00 0.00 0.00 0.00 0.00 0.00 0.00 0.00 0.00 0.00 0.00 0.00 0.00 0.00 0.01 0.01 0.00 0.00 0.00 0.00 0.01 0.02 0.03 0.02 0.01 0.01 0.01 0.02 0.03 0.02 0.02 0.02 0.02 0.01 0.02 0.03 0.03
0.00 0.00 0.00 0.00 0.00 0.00 0.00 0.00 0.00 0.00 0.00 0.00 0.00 0.00 0.00 0.00 0.00 0.00 0.00 0.00 0.01 0.00 0.00 0.00 0.00 0.01 0.01 0.01 0.01 0.01 0.01 0.01 0.01 0.01 0.02 0.01 0.01 0.01 0.01 0.01 0.02 0.03 0.04
0.00 0.00 0.00 0.00 0.00 0.00 0.00 0.00 0.00 0.00 0.00 0.00 0.00 0.00 0.00 0.00 0.00 0.00 0.00 0.00 0.01 0.01 0.01 0.01 0.01 0.01 0.01 0.01 0.01 0.01 0.01 0.01 0.01 0.01 0.01 0.01 0.01 0.02 0.01 0.01 0.01 0.02 0.03
0.00 0.00 0.00 0.00 0.00 0.00 0.00 0.00 0.00 0.00 0.00 0.00 0.00 0.00 0.00 0.00 0.00 0.00 0.00 0.00 0.00 0.01 0.01 0.01 0.01 0.01 0.01 0.00 0.01 0.01 0.01 0.01 0.01 0.01 0.01 0.01 0.01 0.02 0.02 0.02 0.02 0.02 0.03
0.00 0.00 0.00 0.00 0.00 0.00 0.00 0.00 0.00 0.00 0.00 0.00 0.00 0.00 0.00 0.00 0.00 0.00 0.00 0.01 0.01 0.01 0.01 0.01 0.01 0.01 0.01 0.01 0.01 0.01 0.01 0.01 0.02 0.02 0.02 0.02 0.02 0.02 0.03 0.02 0.02 0.03 0.03
0.00 0.00 0.00 0.00 0.00 0.00 0.00 0.00 0.00 0.00 0.00 0.00 0.00 0.00 0.00 0.00 0.00 0.01 0.01 0.01 0.01 0.01 0.01 0.01 0.01 0.01 0.01 0.01 0.01 0.01 0.01 0.02 0.03 0.03 0.03 0.03 0.02 0.02 0.02 0.02 0.02 0.02 0.03
0.00 0.00 0.00 0.00 0.00 0.00 0.00 0.00 0.00 0.00 0.00 0.00 0.00 0.00 0.00 0.00 0.01 0.01 0.01 0.01 0.02 0.02 0.02 0.01 0.01 0.01 0.01 0.01 0.01 0.01 0.02 0.02 0.02 0.02 0.03 0.02 0.02 0.02 0.02 0.02 0.03 0.03 0.03
0.00 0.00 0.00 0.00 0.00 0.00 0.00 0.00 0.00 0.00 0.00 0.00 0.00 0.00 0.00 0.00 0.01 0.01 0.02 0.02 0.02 0.02 0.02 0.01 0.01 0.01 0.01 0.01 0.01 0.02 0.02 0.02 0.02 0.02 0.03 0.03 0.03 0.03 0.03 0.03 0.03 0.03 0.03
0.00 0.01 0.00 0.00 0.00 0.00 0.00 0.00 0.00 0.00 0.00 0.00 0.00 0.00 0.00 0.00 0.01 0.02 0.03 0.02 0.02 0.01 0.01 0.01 0.02 0.01 0.01 0.02 0.02 0.02 0.02 0.02 0.02 0.03 0.03 0.04 0.04 0.05 0.05 0.04 0.04 0.04 0.03
0.00 0.00 0.00 0.00 0.00 0.00 0.00 0.00 0.00 0.00 0.00 0.00 0.00 0.00 0.00 0.00 0.01 0.02 0.03 0.02 0.02 0.02 0.01 0.01 0.02 0.01 0.02 0.02 0.03 0.03 0.02 0.03 0.03 0.03 0.04 0.05 0.05 0.05 0.05 0.04 0.04 0.04 0.03
0.00 0.00 0.00 0.00 0.00 0.00 0.00 0.00 0.00 0.00 0.00 0.00 0.00 0.00 0.00 0.01 0.01 0.03 0.03 0.03 0.02 0.03 0.03 0.02 0.01 0.01 0.02 0.02 0.03 0.03 0.03 0.03 0.03 0.03 0.04 0.05 0.05 0.05 0.05 0.04 0.04 0.04 0.04
0.00 0.00 0.00 0.00 0.00 0.00 0.00 0.00 0.00 0.00 0.00 0.00 0.00 0.00 0.00 0.01 0.01 0.02 0.03 0.02 0.02 0.02 0.03 0.03 0.02 0.02 0.02 0.02 0.03 0.04 0.05 0.04 0.04 0.03 0.04 0.05 0.05 0.05 0.04 0.04 0.04 0.05 0.04
0.00 0.00 0.00 0.00 0.00 0.00 0.00 0.00 0.00 0.00 0.00 0.00 0.00 0.00 0.00 0.00 0.01 0.02 0.03 0.02 0.02 0.02 0.03 0.04 0.05 0.04 0.03 0.02 0.02 0.03 0.04 0.06 0.05 0.04 0.04 0.04 0.04 0.04 0.04 0.04 0.05 0.05 0.05
0.00 0.00 0.00 0.00 0.00 0.00 0.00 0.00 0.00 0.00 0.00 0.00 0.00 0.00 0.00 0.00 0.00 0.01 0.02 0.03 0.02 0.01 0.02 0.03 0.04 0.05 0.04 0.03 0.03 0.02 0.03 0.04 0.06 0.06 0.05 0.04 0.04 0.04 0.05 0.05 0.05 0.05 0.05
0.00 0.00 0.00 0.00 0.00 0.00 0.00 0.00 0.00 0.00 0.00 0.00 0.00 0.00 0.00 0.00 0.00 0.01 0.02 0.03 0.02 0.01 0.01 0.02 0.03 0.03 0.04 0.03 0.03 0.02 0.02 0.02 0.04 0.05 0.05 0.05 0.04 0.04 0.05 0.05 0.04 0.04 0.04
0.00 0.00 0.00 0.00 0.00 0.00 0.00 0.00 0.00 0.00 0.00 0.00 0.00 0.00 0.00 0.00 0.00 0.00 0.02 0.03 0.02 0.02 0.02 0.02 0.02 0.03 0.03 0.03 0.03 0.02 0.01 0.01 0.02 0.03 0.04 0.05 0.05 0.04 0.04 0.04 0.03 0.03 0.03
0.01 0.01 0.01 0.00 0.00 0.00 0.00 0.00 0.00 0.00 0.00 0.00 0.00 0.00 0.00 0.00 0.00 0.00 0.01 0.02 0.03 0.02 0.02 0.02 0.02 0.02 0.02 0.01 0.01 0.01 0.01 0.01 0.01 0.02 0.02 0.03 0.05 0.06 0.05 0.04 0.04 0.03 0.03
MSLP
1019.25 1019.67 1020.07 1020.41 1020.67 1020.83 1020.92 1020.96 1021.01 1021.09 1021.22 1021.41 1021.64 1021.89 1022.10 1022.26 1022.35 1022.34 1022.26 1022.13 1021.98 1021.83 1021.72 1021.64 1021.59 1021.57 1021.55 1021.51 1021.43 1021.29 1021.09 1020.83 1020.50 1020.11 1019.66 1019.16 1018.60 1018.00 1017.38 1016.74 1016.10 1015.48 1014.88
1019.48 1019.91 1020.32 1020.66 1020.92 1021.09 1021.19 1021.25 1021.31 1021.40 1021.55 1021.74 1021.98 1022.23 1022.46 1022.64 1022.75 1022.77 1022.71 1022.60 1022.46 1022.32 1022.19 1022.10 1022.03 1021.98 1021.93 1021.87 1021.79 1021.66 1021.49 1021.26 1020.98 1020.64 1020.24 1019.78 1019.26 1018.68 1018.05 1017.40 1016.72 1016.05 1015.39
1019.64 1020.09 1020.50 1020.85 1021.12 1021.31 1021.43 1021.51 1021.58 1021.69 1021.84 1022.03 1022.27 1022.52 1022.75 1022.93 1023.05 1023.09 1023.06 1022.97 1022.85 1022.72 1022.60 1022.50 1022.41 1022.35 1022.28 1022.21 1022.11 1021.99 1021.82 1021.62 1021.37 1021.07 1020.72 1020.31 1019.83 1019.29 1018.68 1018.03 1017.34 1016.63 1015.93
1019.72 1020.19 1020.62 1020.99 1021.28 1021.48 1021.63 1021.73 1021.83 1021.95 1022.10 1022.30 1022.52 1022.76 1022.97 1023.15 1023.26 1023.31 1023.29 1023.23 1023.13 1023.03 1022.92 1022.83 1022.75 1022.67 1022.59 1022.50 1022.39 1022.25 1022.09 1021.89 1021.65 1021.38 1021.07 1020.69 1020.26 1019.76 1019.19 1018.56 1017.88 1017.17 1016.45
1019.68 1020.20 1020.67 1021.07 1021.38 1021.62 1021.80 1021.93 1022.06 1022.19 1022.35 1022.54 1022.75 1022.96 1023.15 1023.30 1023.41 1023.45 1023.45 1023.40 1023.33 1023.25 1023.17 1023.09 1023.01 1022.94 1022.85 1022.74 1022.60 1022.44 1022.26 1022.04 1021.81 1021.54 1021.25 1020.91 1020.51 1020.06 1019.54 1018.95 1018.31 1017.62 1016.91
1019.54 1020.11 1020.63 1021.07 1021.43 1021.71 1021.92 1022.09 1022.24 1022.40 1022.56 1022.74 1022.93 1023.12 1023.28 1023.41 1023.49 1023.53 1023.53 1023.50 1023.44 1023.39 1023.33 1023.27 1023.21 1023.13 1023.03 1022.90 1022.74 1022.54 1022.32 1022.08 1021.82 1021.54 1021.25 1020.93 1020.57 1020.17 1019.71 1019.18 1018.60 1017.96 1017.28
1019.28 1019.93 1020.51 1021.00 1021.40 1021.72 1021.98 1022.18 1022.36 1022.54 1022.71 1022.89 1023.07 1023.23 1023.36 1023.47 1023.53 1023.56 1023.55 1023.53 1023.49 1023.46 1023.42 1023.37 1023.32 1023.23 1023.12 1022.96 1022.77 1022.53 1022.27 1021.99 1021.70 1021.40 1021.10 1020.79 1020.46 1020.11 1019.70 1019.25 1018.74 1018.17 1017.56
1018.92 1019.64 1020.28 1020.82 1021.27 1021.63 1021.92 1022.17 1022.38 1022.58 1022.77 1022.95 1023.12 1023.27 1023.39 1023.47 1023.52 1023.53 1023.53 1023.51 1023.48 1023.46 1023.43 1023.40 1023.34 1023.25 1023.12 1022.94 1022.71 1022.43 1022.12 1021.80 1021.47 1021.15 1020.84 1020.53 1020.23 1019.91 1019.57 1019.19 1018.76 1018.27 1017.73
1018.49 1019.27 1019.96 1020.54 1021.02 1021.42 1021.75 1022.03 1022.28 1022.50 1022.71 1022.91 1023.08 1023.23 1023.34 1023.42 1023.46 1023.47 1023.47 1023.45 1023.43 1023.41 1023.39 1023.35 1023.29 1023.19 1023.03 1022.83 1022.56 1022.25 1021.91 1021.55 1021.19 1020.84 1020.52 1020.21 1019.93 1019.64 1019.35 1019.04 1018.68 1018.27 1017.82
1018.01 1018.83 1019.54 1020.15 1020.66 1021.08 1021.44 1021.76 1022.04 1022.30 1022.54 1022.76 1022.95 1023.11 1023.23 1023.31 1023.36 1023.38 1023.38 1023.37 1023.35 1023.33 1023.30 1023.26 1023.18 1023.06 1022.89 1022.65 1022.36 1022.03 1021.66 1021.27 1020.89 1020.53 1020.19 1019.89 1019.61 1019.36 1019.10 1018.83 1018.53 1018.20 1017.81
1017.49 1018.32 1019.04 1019.66 1020.18 1020.63 1021.02 1021.37 1021.69 1021.99 1022.27 1022.52 1022.74 1022.93 1023.07 1023.17 1023.24 1023.27 1023.28 1023.27 1023.25 1023.23 1023.19 1023.13 1023.03 1022.89 1022.70 1022.44 1022.13 1021.78 1021.40 1021.00 1020.61 1020.24 1019.90 1019.60 1019.32 1019.08 1018.84 1018.60 1018.33 1018.04 1017.70
1016.95 1017.77 1018.48 1019.10 1019.63 1020.10 1020.52 1020.90 1021.26 1021.61 1021.93 1022.22 1022.48 1022.70 1022.87 1023.00 1023.08 1023.13 1023.15 1023.16 1023.14 1023.11 1023.05 1022.97 1022.85 1022.69 1022.47 1022.20 1021.88 1021.52 1021.14 1020.74 1020.35 1019.98 1019.65 1019.34 1019.07 1018.82 1018.58 1018.34 1018.09 1017.81 1017.49
1016.39 1017.17 1017.87 1018.48 1019.03 1019.52 1019.97 1020.39 1020.80 1021.18 1021.54 1021.87 1022.17 1022.42 1022.63 1022.79 1022.90 1022.97 1023.00 1023.01 1022.99 1022.95 1022.88 1022.78 1022.63 1022.45 1022.21 1021.93 1021.60 1021.25 1020.87 1020.48 1020.11 1019.75 1019.42 1019.11 1018.83 1018.57 1018.32 1018.06 1017.79 1017.50 1017.18
1015.79 1016.54 1017.22 1017.84 1018.39 1018.91 1019.40 1019.86 1020.31 1020.73 1021.13 1021.50 1021.83 1022.11 1022.34 1022.52 1022.66 1022.74 1022.79 1022.80 1022.78 1022.73 1022.64 1022.52 1022.36 1022.15 1021.90 1021.61 1021.28 1020.93 1020.57 1020.20 1019.85 1019.50 1019.18 1018.88 1018.59 1018.31 1018.03 1017.75 1017.45 1017.12 1016.78
1015.15 1015.88 1016.55 1017.17 1017.75 1018.30 1018.82 1019.32 1019.80 1020.26 1020.69 1021.08 1021.43 1021.73 1021.98 1022.18 1022.33 1022.43 1022.49 1022.50 1022.48 1022.42 1022.32 1022.18 1021.99 1021.77 1021.50 1021.21 1020.89 1020.55 1020.20 1019.86 1019.53 1019.21 1018.90 1018.60 1018.30 1018.01 1017.70 1017.38 1017.05 1016.68 1016.30
1014.47 1015.18 1015.85 1016.49 1017.10 1017.68 1018.23 1018.77 1019.27 1019.75 1020.19 1020.59 1020.95 1021.25 1021.51 1021.71 1021.87 1021.98 1022.05 1022.07 1022.05 1021.98 1021.87 1021.71 1021.51 1021.28 1021.01 1020.71 1020.39 1020.07 1019.75 1019.43 1019.13 1018.83 1018.54 1018.25 1017.96 1017.65 1017.33 1016.98 1016.60 1016.20 1015.77
1013.76 1014.46 1015.14 1015.80 1016.43 1017.04 1017.62 1018.17 1018.69 1019.17 1019.60 1020.00 1020.34 1020.64 1020.89 1021.10 1021.26 1021.38 1021.45 1021.48 1021.46 1021.40 1021.28 1021.12 1020.92 1020.67 1020.40 1020.10 1019.80 1019.49 1019.20 1018.91 1018.64 1018.37 1018.10 1017.83 1017.55 1017.24 1016.90 1016.52 1016.12 1015.69 1015.22
1013.03 1013.74 1014.43 1015.10 1015.75 1016.37 1016.96 1017.51 1018.02 1018.48 1018.90 1019.27 1019.59 1019.88 1020.12 1020.32 1020.49 1020.61 1020.70 1020.74 1020.74 1020.68 1020.57 1020.41 1020.21 1019.97 1019.70 1019.41 1019.12 1018.84 1018.57 1018.31 1018.07 1017.83 1017.60 1017.34 1017.07 1016.76 1016.42 1016.03 1015.61 1015.15 1014.66
1012.32 1013.02 1013.71 1014.39 1015.04 1015.65 1016.23 1016.76 1017.24 1017.67 1018.06 1018.40 1018.70 1018.97 1019.20 1019.40 1019.58 1019.72 1019.83 1019.89 1019.90 1019.86 1019.77 1019.62 1019.43 1019.20 1018.94 1018.67 1018.40 1018.14 1017.90 1017.67 1017.46 1017.25 1017.04 1016.81 1016.55 1016.25 1015.90 1015.51 1015.07 1014.59 1014.08
1011.63 1012.33 1013.01 1013.67 1014.30 1014.89 1015.43 1015.93 1016.37 1016.76 1017.10 1017.41 1017.69 1017.94 1018.17 1018.39 1018.58 1018.75 1018.88 1018.97 1019.01 1019.00 1018.92 1018.79 1018.62 1018.40 1018.16 1017.91 1017.67 1017.43 1017.22 1017.02 1016.83 1016.65 1016.46 1016.24 1015.99 1015.69 1015.34 1014.93 1014.48 1013.99 1013.46
1010.99 1011.66 1012.31 1012.95 1013.54 1014.08 1014.58 1015.02 1015.41 1015.75 1016.06 1016.34 1016.60 1016.85 1017.10 1017.33 1017.55 1017.75 1017.92 1018.04 1018.12 1018.13 1018.08 1017.98 1017.82 1017.63 1017.41 1017.18 1016.96 1016.75 1016.56 1016.38 1016.21 1016.05 1015.86 1015.65 1015.39 1015.08 1014.72 1014.30 1013.83 1013.32 1012.77
1010.36 1011.00 1011.62 1012.20 1012.74 1013.23 1013.67 1014.06 1014.40 1014.70 1014.98 1015.25 1015.51 1015.77 1016.04 1016.30 1016.56 1016.80 1017.00 1017.16 1017.27 1017.31 1017.28 1017.20 1017.07 1016.90 1016.70 1016.49 1016.29 1016.10 1015.93 1015.76 1015.61 1015.44 1015.25 1015.03 1014.75 1014.42 1014.03 1013.59 1013.09 1012.56 1012.00
1009.72 1010.32 1010.89 1011.42 1011.91 1012.34 1012.73 1013.07 1013.38 1013.66 1013.93 1014.19 1014.47 1014.76 1015.06 1015.36 1015.65 1015.93 1016.17 1016.36 1016.49 1016.55 1016.55 1016.49 1016.37 1016.21 1016.03 1015.85 1015.66 1015.48 1015.32 1015.16 1015.00 1014.81 1014.61 1014.35 1014.04 1013.68 1013.25 1012.77 1012.25 1011.69 1011.11
1009.03 1009.58 1010.10 1010.58 1011.02 1011.42 1011.77 1012.08 1012.38 1012.65 1012.93 1013.22 1013.53 1013.85 1014.19 1014.53 1014.86 1015.17 1015.43 1015.64 1015.79 1015.87 1015.87 1015.82 1015.71 1015.56 1015.40 1015.22 1015.05 1014.87 1014.71 1014.54 1014.36 1014.15 1013.91 1013.61 1013.26 1012.85 1012.38 1011.86 1011.30 1010.72 1010.12
1008.23 1008.74 1009.22 1009.67 1010.08 1010.45 1010.79 1011.11 1011.42 1011.72 1012.03 1012.36 1012.71 1013.08 1013.45 1013.83 1014.19 1014.51 1014.79 1015.01 1015.15 1015.22 1015.23 1015.17 1015.07 1014.93 1014.77 1014.60 1014.42 1014.25 1014.07 1013.88 1013.68 1013.43 1013.14 1012.80 1012.40 1011.94 1011.42 1010.86 1010.27 1009.67 1009.06
1007.31 1007.78 1008.23 1008.66 1009.07 1009.45 1009.81 1010.16 1010.51 1010.86 1011.23 1011.62 1012.02 1012.43 1012.84 1013.24 1013.61 1013.94 1014.21 1014.41 1014.54 1014.61 1014.60 1014.53 1014.43 1014.29 1014.13 1013.95 1013.78 1013.60 1013.40 1013.19 1012.95 1012.66 1012.33 1011.93 1011.48 1010.97 1010.41 1009.82 1009.21 1008.59 1007.99
Thickness
5724 5723 5720 5719 5718 5717 5715 5714 5713 5712 5711 5709 5707 5705 5703 5701 5699 5697 5694 5693 5691 5689 5688 5686 5684 5684 5683 5682 5681 5680 5679 5677 5673 5677 5683 5687 5688 5690 5691 5694 5696 5698 5700
5723 5722 5719 5717 5716 5714 5713 5712 5711 5710 5709 5707 5705 5703 5701 5698 5696 5694 5692 5690 5688 5685 5684 5682 5681 5681 5679 5678 5677 5676 5676 5676 5674 5673 5678 5681 5683 5686 5687 5689 5691 5694 5695
5722 5719 5716 5714 5713 5711 5711 5710 5709 5707 5706 5704 5702 5699 5697 5695 5693 5691 5689 5687 5685 5683 5681 5679 5677 5676 5674 5674 5673 5672 5672 5674 5674 5673 5673 5677 5679 5681 5682 5684 5686 5688 5690
5720 5716 5713 5711 5710 5709 5708 5707 5706 5704 5703 5701 5698 5696 5694 5691 5688 5686 5684 5683 5682 5680 5679 5677 5674 5672 5670 5669 5669 5668 5669 5669 5669 5669 5669 5671 5673 5676 5677 5676 5678 5681 5684
5717 5713 5711 5710 5708 5706 5705 5703 5702 5700 5699 5697 5695 5692 5689 5686 5682 5680 5679 5679 5677 5676 5675 5674 5672 5670 5669 5667 5665 5664 5664 5663 5664 5664 5664 5665 5666 5667 5668 5671 5671 5674 5677
5714 5710 5709 5707 5704 5702 5701 5699 5697 5695 5694 5692 5690 5687 5684 5680 5677 5676 5674 5673 5672 5671 5670 5670 5669 5667 5666 5664 5663 5662 5661 5659 5658 5658 5658 5658 5659 5661 5663 5664 5665 5665 5666
5712 5708 5705 5703 5700 5698 5697 5694 5692 5690 5689 5686 5684 5682 5678 5674 5673 5672 5670 5669 5668 5667 5666 5665 5665 5663 5661 5659 5659 5658 5657 5657 5657 5655 5653 5654 5655 5657 5657 5658 5658 5659 5660
5709 5705 5702 5699 5696 5694 5692 5689 5687 5686 5684 5681 5679 5677 5673 5671 5669 5667 5666 5665 5664 5663 5662 5660 5658 5656 5655 5654 5654 5653 5653 5652 5652 5652 5651 5651 5652 5653 5653 5652 5652 5653 5655
5706 5703 5700 5696 5693 5690 5687 5684 5683 5681 5679 5677 5675 5672 5669 5666 5664 5662 5660 5659 5658 5657 5656 5654 5652 5650 5650 5649 5648 5647 5647 5647 5648 5647 5647 5647 5647 5647 5647 5646 5645 5644 5644
5704 5701 5697 5693 5689 5686 5683 5681 5679 5677 5675 5673 5670 5668 5665 5662 5659 5657 5654 5652 5651 5650 5648 5647 5646 5644 5643 5642 5640 5639 5638 5639 5640 5640 5640 5640 5640 5639 5639 5637 5636 5634 5633
5702 5698 5693 5689 5686 5682 5679 5677 5675 5672 5670 5668 5665 5663 5661 5658 5654 5651 5649 5646 5643 5642 5641 5639 5638 5637 5636 5634 5633 5631 5631 5632 5632 5632 5631 5631 5631 5631 5630 5628 5627 5625 5623
5697 5692 5688 5685 5682 5679 5674 5671 5669 5666 5663 5660 5658 5656 5654 5652 5649 5645 5643 5640 5638 5635 5633 5632 5630 5629 5628 5627 5626 5625 5625 5624 5622 5622 5621 5620 5619 5619 5619 5618 5617 5617 5617
5690 5685 5682 5679 5676 5673 5669 5665 5662 5659 5656 5654 5651 5648 5647 5645 5642 5640 5636 5633 5631 5628 5626 5624 5623 5622 5620 5619 5618 5617 5616 5613 5612 5610 5609 5609 5608 5608 5608 5607 5607 5606 5607
5684 5680 5676 5672 5669 5666 5663 5659 5655 5652 5649 5647 5644 5641 5639 5637 5633 5630 5627 5625 5622 5620 5618 5616 5615 5613 5611 5610 5609 5608 5605 5603 5600 5599 5598 5598 5597 5596 5595 5594 5594 5593 5593
5678 5674 5670 5666 5663 5659 5655 5652 5649 5646 5643 5640 5637 5634 5631 5627 5625 5623 5619 5616 5614 5611 5609 5607 5605 5603 5602 5601 5600 5598 5595 5593 5590 5588 5587 5585 5584 5583 5582 5581 5581 5580 5579
5672 5668 5664 5660 5656 5652 5648 5643 5641 5639 5637 5634 5631 5628 5624 5621 5618 5615 5612 5609 5606 5603 5599 5596 5595 5594 5592 5591 5589 5587 5584 5582 5579 5577 5575 5574 5572 5571 5570 5569 5568 5567 5567
5666 5662 5658 5654 5650 5646 5642 5637 5633 5630 5628 5626 5623 5620 5617 5613 5610 5607 5604 5600 5597 5594 5589 5587 5585 5584 5582 5580 5578 5576 5573 5571 5569 5566 5564 5562 5560 5559 5558 5557 5556 5556 5556
5660 5656 5652 5647 5643 5639 5636 5632 5629 5624 5620 5617 5615 5612 5609 5605 5601 5598 5594 5590 5587 5584 5580 5579 5577 5575 5572 5570 5567 5565 5563 5560 5557 5555 5552 5551 5549 5547 5546 5545 5545 5545 5545
5652 5648 5644 5640 5636 5633 5629 5626 5623 5619 5616 5612 5608 5604 5600 5597 5593 5590 5585 5580 5578 5576 5573 5571 5568 5566 5563 5560 5557 5554 5552 5549 5547 5544 5541 5540 5539 5536 5535 5534 5534 5534 5534
5643 5641 5636 5632 5628 5625 5621 5618 5614 5611 5608 5604 5600 5596 5591 5587 5583 5580 5576 5573 5570 5568 5566 5563 5560 5557 5554 5550 5547 5543 5541 5538 5535 5533 5531 5530 5528 5526 5525 5524 5523 5523 5523
5635 5632 5628 5624 5620 5616 5613 5609 5605 5602 5598 5595 5591 5588 5584 5579 5575 5573 5569 5566 5563 5560 5557 5555 5551 5548 5544 5540 5537 5534 5531 5528 5525 5523 5521 5519 5518 5517 5515 5514 5514 5514 5514
5627 5623 5619 5615 5611 5607 5603 5600 5597 5593 5590 5586 5582 5579 5575 5571 5567 5564 5561 5559 5556 5552 5549 5545 5542 5539 5535 5531 5528 5524 5521 5518 5515 5513 5511 5509 5508 5507 5506 5505 5505 5505 5505
5618 5614 5609 5606 5602 5598 5594 5591 5588 5584 5581 5577 5573 5569 5565 5561 5558 5555 5552 5549 5546 5542 5539 5535 5532 5529 5526 5523 5519 5516 5512 5509 5506 5503 5501 5499 5498 5497 5496 5496 5496 5496 5496
5608 5604 5600 5596 5593 5589 5585 5582 5579 5575 5571 5567 5563 5559 5555 5551 5548 5545 5541 5538 5534 5531 5528 5524 5522 5519 5516 5513 5510 5506 5503 5500 5497 5494 5492 5490 5489 5488 5487 5487 5487 5488 5488
5598 5594 5591 5587 5583 5580 5576 5572 5569 5565 5561 5557 5553 5549 5545 5541 5537 5534 5530 5526 5523 5519 5517 5514 5511 5509 5506 5503 5500 5497 5494 5491 5488 5485 5483 5481 5480 5479 5479 5479 5480 5480 5480
5586 5584 5581 5577 5574 5570 5566 5562 5559 5555 5551 5547 5543 5539 5535 5531 5527 5523 5519 5515 5512 5509 5506 5504 5501 5498 5496 5493 5491 5488 5485 5482 5479 5476 5474 5472 5472 5471 5471 5471 5472 5472 5472